Hourly Data Report for June 19, 2015

KELOWNA UBCO
BRITISH COLUMBIA

49°56'26.700" N
119°24'00.760" W
456.00 m
1123996
71644
VKU

Download Data

Hourly Data (June 2015)
Hourly Data Report for June 19, 2015
TIME
LST
Temp Definition
°C
Dew Point Definition
°C
Rel Hum Definition
%
Precip. Amount Definition
mm

Wind Dir Definition
10's deg

Wind Spd Definition
km/h
Visibility Definition
km
Stn Press Definition
kPa
Hmdx Definition


Wind Chill Definition


Weather Definition


00:00 16.7 12.1 74 0.0       95.89     LegendNANA
01:00 16.3 12.4 78 0.0       95.92     LegendNANA
02:00 15.9 10.4 70 0.0       95.92     LegendNANA
03:00 16.2 9.7 65 0.0       95.97     LegendNANA
04:00 16.2 8.2 59 0.0       96.01     LegendNANA
05:00 15.8 5.3 50 0.0       96.08     LegendNANA
06:00 16.8 4.5 44 0.0       96.13     LegendNANA
07:00 17.6 3.7 39 0.0       96.13     LegendNANA
08:00 18.6 3.2 36 0.0       96.14     LegendNANA
09:00 20.1 2.0 30 0.0       96.14     LegendNANA
10:00 22.0 2.2 27 0.0       96.14     LegendNANA
11:00 22.4 -0.4 22 0.0       96.17     LegendNANA
12:00 23.2 1.2 23 0.0       96.16     LegendNANA
13:00 22.8 0.6 23 0.0       96.17     LegendNANA
14:00 23.6 -0.3 21 0.0       96.16     LegendNANA
15:00 24.0 0.9 22 0.0       96.17     LegendNANA
16:00 23.1 -0.9 20 0.0       96.18     LegendNANA
17:00 22.8 -0.9 21 0.0       96.18     LegendNANA
18:00 22.1 -0.4 22 0.0       96.20     LegendNANA
19:00 20.1 0.0 26 0.0       96.24     LegendNANA
20:00 18.1 -0.7 28 0.0       96.30     LegendNANA
21:00 16.1 1.1 36 0.0       96.37     LegendNANA
22:00 15.5 0.3 35 0.0       96.42     LegendNANA
23:00 14.6 0.7 39 0.0       96.45     LegendNANA

Notes on Data Quality.

Legend

  • E = Estimated
  • M = Missing
  • NA = Not Available*
  • [empty] = Indicates an unobserved value
Date modified: